| time (UTC) | temp F | wind direction | speed knots | gust knots | rain 1hr in | rain 24hr in | rain mn in | humidity % | barometer mb |
| 20260504185820 | 73 | 6 | 0.0 | 2.6 | 0.00 | 0.00 | 0.00 | 29 | -103.7 |
| 20260504185322 | 73 | 151 | 0.9 | 3.5 | 0.00 | 0.00 | 0.00 | 28 | -103.7 |
| 20260504184819 | 73 | 123 | 0.9 | 3.5 | 0.00 | 0.00 | 0.00 | 30 | -103.7 |
| 20260504184341 | 72 | 136 | 0.0 | 8.7 | 0.00 | 0.00 | 0.00 | 32 | -103.7 |
| 20260504183820 | 72 | 207 | 0.9 | 2.6 | 0.00 | 0.00 | 0.00 | 28 | -103.7 |
| 20260504183341 | 72 | 290 | 0.9 | 3.5 | 0.00 | 0.00 | 0.00 | 30 | -103.7 |
| 20260504182821 | 72 | 165 | 1.7 | 3.5 | 0.00 | 0.00 | 0.00 | 28 | -103.7 |
| 20260504182322 | 71 | 148 | 1.7 | 3.5 | 0.00 | 0.00 | 0.00 | 28 | -103.7 |
| 20260504181838 | 70 | 311 | 0.9 | 3.5 | 0.00 | 0.00 | 0.00 | 29 | -103.7 |
| 20260504181317 | 71 | 321 | 0.9 | 3.5 | 0.00 | 0.00 | 0.00 | 30 | -103.7 |
| 20260504180818 | 70 | 155 | 0.9 | 2.6 | 0.00 | 0.00 | 0.00 | 31 | -103.7 |
| 20260504180321 | 70 | 326 | 1.7 | 2.6 | 0.00 | 0.00 | 0.00 | 31 | -103.7 |
| 20260504175840 | 70 | 125 | 0.9 | 3.5 | 0.00 | 0.00 | 0.00 | 31 | -103.7 |
| 20260504175322 | 70 | 297 | 0.0 | 3.5 | 0.00 | 0.00 | 0.00 | 30 | -103.7 |
| 20260504174823 | 70 | 116 | 0.9 | 3.5 | 0.00 | 0.00 | 0.00 | 33 | -103.7 |
| 20260504174323 | 70 | 294 | 0.0 | 1.7 | 0.00 | 0.00 | 0.00 | 32 | -103.7 |
| 20260504173823 | 70 | 288 | 0.9 | 3.5 | 0.00 | 0.00 | 0.00 | 32 | -103.7 |
| 20260504173323 | 70 | 167 | 0.9 | 3.5 | 0.00 | 0.00 | 0.00 | 33 | -103.7 |
| 20260504172823 | 70 | 126 | 0.0 | 0.9 | 0.00 | 0.00 | 0.00 | 36 | -103.7 |
| 20260504172344 | 69 | 304 | 0.0 | 2.6 | 0.00 | 0.00 | 0.00 | 38 | -103.7 |
| 20260504171824 | 69 | 145 | 0.0 | 2.6 | 0.00 | 0.00 | 0.00 | 34 | -103.7 |
| 20260504171325 | 68 | 112 | 0.9 | 4.3 | 0.00 | 0.00 | 0.00 | 35 | -103.7 |
| 20260504170825 | 68 | 158 | 1.7 | 2.6 | 0.00 | 0.00 | 0.00 | 34 | -103.7 |
| 20260504170327 | 67 | 323 | 0.9 | 2.6 | 0.00 | 0.00 | 0.00 | 38 | -103.7 |
| 20260504160335 | 64 | 345 | 0.0 | 1.7 | 0.00 | 0.00 | 0.00 | 41 | -103.6 |
| 20260504150838 | 59 | 335 | 0.9 | 2.6 | 0.00 | 0.00 | 0.00 | 48 | -103.6 |
| 20260504150346 | 59 | 5 | 0.0 | 1.7 | 0.00 | 0.00 | 0.00 | 47 | -103.6 |
| 20260504141314 | 58 | 303 | 0.9 | 1.7 | 0.00 | 0.00 | 0.00 | 43 | -103.6 |
| 20260504140822 | 59 | 302 | 0.9 | 1.7 | 0.00 | 0.00 | 0.00 | 41 | -103.6 |
| 20260504140324 | 59 | 53 | 0.9 | 1.7 | 0.00 | 0.00 | 0.00 | 41 | -103.6 |
| 20260504130822 | 50 | 124 | 0.0 | 0.9 | 0.00 | 0.00 | 0.00 | 52 | -103.6 |
| 20260504130325 | 50 | 124 | 0.0 | 0.0 | 0.00 | 0.00 | 0.00 | 51 | -103.6 |
| 20260504110334 | 50 | 335 | 0.0 | 2.6 | 0.00 | 0.00 | 0.00 | 55 | -103.6 |
| 20260504100313 | 53 | 153 | 3.5 | 5.2 | 0.00 | 0.00 | 0.00 | 34 | -103.7 |
| 20260504081824 | 58 | 97 | 4.3 | 7.8 | 0.00 | 0.00 | 0.00 | 27 | -103.7 |
| 20260504081332 | 58 | 141 | 4.3 | 7.0 | 0.00 | 0.00 | 0.00 | 27 | -103.7 |
| 20260504080814 | 58 | 149 | 3.5 | 9.6 | 0.00 | 0.00 | 0.00 | 26 | -103.7 |
| 20260504080345 | 57 | 133 | 4.3 | 9.6 | 0.00 | 0.00 | 0.00 | 28 | -103.7 |
| 20260504070333 | 57 | 73 | 3.5 | 7.8 | 0.00 | 0.00 | 0.00 | 29 | -103.7 |
| 20260504050334 | 60 | 131 | 3.5 | 6.1 | 0.00 | 0.00 | 0.00 | 24 | -103.7 |
| 20260504045815 | 60 | 143 | 2.6 | 5.2 | 0.00 | 0.00 | 0.00 | 24 | -103.7 |
| 20260504045318 | 60 | 79 | 3.5 | 5.2 | 0.00 | 0.00 | 0.00 | 24 | -103.7 |
| 20260504044847 | 60 | 156 | 1.7 | 5.2 | 0.00 | 0.00 | 0.00 | 25 | -103.7 |
| 20260504044336 | 60 | 131 | 2.6 | 5.2 | 0.00 | 0.00 | 0.00 | 25 | -103.7 |
| 20260504043838 | 60 | 148 | 3.5 | 5.2 | 0.00 | 0.00 | 0.00 | 24 | -103.7 |
| 20260504043326 | 61 | 135 | 3.5 | 5.2 | 0.00 | 0.00 | 0.00 | 24 | -103.7 |
| 20260504042827 | 61 | 92 | 3.5 | 5.2 | 0.00 | 0.00 | 0.00 | 24 | -103.6 |
| 20260504042339 | 61 | 160 | 2.6 | 5.2 | 0.00 | 0.00 | 0.00 | 24 | -103.6 |
| 20260504041820 | 61 | 135 | 2.6 | 6.1 | 0.00 | 0.00 | 0.00 | 24 | -103.7 |
| 20260504041329 | 61 | 148 | 2.6 | 6.1 | 0.00 | 0.00 | 0.00 | 24 | -103.7 |
| 20260504040830 | 61 | 140 | 2.6 | 6.1 | 0.00 | 0.00 | 0.00 | 24 | -103.7 |
| 20260504040341 | 61 | 128 | 2.6 | 5.2 | 0.00 | 0.00 | 0.00 | 24 | -103.6 |
| 20260504035821 | 61 | 136 | 2.6 | 5.2 | 0.00 | 0.00 | 0.00 | 24 | -103.6 |
| 20260504035332 | 61 | 129 | 2.6 | 4.3 | 0.00 | 0.00 | 0.00 | 24 | -103.6 |
| 20260504034833 | 61 | 153 | 2.6 | 5.2 | 0.00 | 0.00 | 0.00 | 24 | -103.6 |
| 20260504034316 | 62 | 150 | 2.6 | 4.3 | 0.00 | 0.00 | 0.00 | 24 | -103.7 |
| 20260504033824 | 62 | 154 | 2.6 | 4.3 | 0.00 | 0.00 | 0.00 | 24 | -103.6 |
| 20260504033327 | 62 | 131 | 2.6 | 4.3 | 0.00 | 0.00 | 0.00 | 23 | -103.7 |
| 20260504032835 | 62 | 130 | 2.6 | 4.3 | 0.00 | 0.00 | 0.00 | 23 | -103.7 |
| 20260504032319 | 62 | 143 | 2.6 | 3.5 | 0.00 | 0.00 | 0.00 | 22 | -103.6 |
| 20260504031819 | 63 | 134 | 1.7 | 3.5 | 0.00 | 0.00 | 0.00 | 23 | -103.6 |
| 20260504031328 | 63 | 157 | 1.7 | 3.5 | 0.00 | 0.00 | 0.00 | 22 | -103.7 |
| 20260504030830 | 63 | 122 | 1.7 | 2.6 | 0.00 | 0.00 | 0.00 | 23 | -103.7 |
| 20260504030314 | 63 | 143 | 1.7 | 2.6 | 0.00 | 0.00 | 0.00 | 23 | -103.7 |
| 20260504025820 | 63 | 136 | 0.9 | 3.5 | 0.00 | 0.00 | 0.00 | 23 | -103.7 |
| 20260504025323 | 63 | 143 | 1.7 | 3.5 | 0.00 | 0.00 | 0.00 | 23 | -103.7 |
| 20260504024830 | 63 | 150 | 1.7 | 2.6 | 0.00 | 0.00 | 0.00 | 24 | -103.7 |
| 20260504024317 | 64 | 135 | 0.9 | 2.6 | 0.00 | 0.00 | 0.00 | 24 | -103.6 |
| 20260504023818 | 64 | 150 | 1.7 | 2.6 | 0.00 | 0.00 | 0.00 | 24 | -103.6 |
| 20260504023344 | 65 | 138 | 0.9 | 1.7 | 0.00 | 0.00 | 0.00 | 23 | -103.7 |
| 20260504022824 | 65 | 141 | 0.9 | 1.7 | 0.00 | 0.00 | 0.00 | 23 | -103.7 |
| 20260504022334 | 66 | 131 | 0.9 | 1.7 | 0.00 | 0.00 | 0.00 | 23 | -103.6 |
| 20260504021814 | 66 | 47 | 0.9 | 0.9 | 0.00 | 0.00 | 0.00 | 21 | -103.6 |
| 20260504021324 | 66 | 4 | 0.0 | 0.0 | 0.00 | 0.00 | 0.00 | 20 | -103.6 |
| 20260504020826 | 66 | 4 | 0.0 | 0.0 | 0.00 | 0.00 | 0.00 | 18 | -103.6 |
| 20260504020313 | 67 | 4 | 0.0 | 0.0 | 0.00 | 0.00 | 0.00 | 17 | -103.6 |
| 20260504015816 | 67 | 4 | 0.0 | 0.0 | 0.00 | 0.00 | 0.00 | 18 | -103.6 |
| 20260504015319 | 68 | 4 | 0.0 | 0.0 | 0.00 | 0.00 | 0.00 | 17 | -103.6 |
| 20260504014811 | 68 | 4 | 0.0 | 0.0 | 0.00 | 0.00 | 0.00 | 17 | -103.6 |
| 20260504014314 | 68 | 4 | 0.0 | 0.0 | 0.00 | 0.00 | 0.00 | 15 | -103.6 |
| 20260504013815 | 69 | 4 | 0.0 | 0.0 | 0.00 | 0.00 | 0.00 | 15 | -103.6 |
| 20260504013341 | 69 | 4 | 0.0 | 0.0 | 0.00 | 0.00 | 0.00 | 16 | -103.6 |
| 20260504012829 | 69 | 337 | 0.0 | 0.9 | 0.00 | 0.00 | 0.00 | 17 | -103.6 |
| 20260504012352 | 69 | 337 | 0.0 | 0.9 | 0.00 | 0.00 | 0.00 | 15 | -103.6 |
| 20260504011820 | 69 | 337 | 0.0 | 0.9 | 0.00 | 0.00 | 0.00 | 16 | -103.6 |
| 20260504011322 | 69 | 337 | 0.0 | 0.9 | 0.00 | 0.00 | 0.00 | 17 | -103.6 |
| 20260504010830 | 69 | 338 | 0.0 | 0.0 | 0.00 | 0.00 | 0.00 | 16 | -103.6 |
| 20260504010313 | 70 | 338 | 0.0 | 0.9 | 0.00 | 0.00 | 0.00 | 16 | -103.6 |
| 20260504005815 | 70 | 338 | 0.0 | 1.7 | 0.00 | 0.00 | 0.00 | 15 | -103.6 |
| 20260504005345 | 70 | 307 | 0.0 | 1.7 | 0.00 | 0.00 | 0.00 | 15 | -103.6 |
| 20260504004833 | 70 | 306 | 0.0 | 2.6 | 0.00 | 0.00 | 0.00 | 16 | -103.6 |
| 20260504004315 | 70 | 338 | 0.9 | 3.5 | 0.00 | 0.00 | 0.00 | 17 | -103.6 |
| 20260504003823 | 71 | 349 | 1.7 | 3.5 | 0.00 | 0.00 | 0.00 | 15 | -103.6 |
| 20260504003326 | 71 | 276 | 0.9 | 2.6 | 0.00 | 0.00 | 0.00 | 17 | -103.6 |
| 20260504002834 | 71 | 302 | 0.9 | 3.5 | 0.00 | 0.00 | 0.00 | 16 | -103.5 |
| 20260504002313 | 71 | 347 | 0.9 | 3.5 | 0.00 | 0.00 | 0.00 | 17 | -103.5 |
| 20260504001821 | 71 | 296 | 0.9 | 2.6 | 0.00 | 0.00 | 0.00 | 16 | -103.5 |
| 20260504001323 | 71 | 348 | 1.7 | 3.5 | 0.00 | 0.00 | 0.00 | 14 | -103.5 |
| 20260504000823 | 71 | 316 | 0.9 | 3.5 | 0.00 | 0.00 | 0.00 | 16 | -103.5 |
| 20260504000314 | 72 | 330 | 1.7 | 3.5 | 0.00 | 0.00 | 0.00 | 16 | -103.5 |
| 20260503235813 | 72 | 342 | 2.6 | 3.5 | 0.00 | 0.00 | 0.00 | 15 | -103.5 |
| 20260503235342 | 73 | 335 | 0.0 | 1.7 | 0.00 | 0.00 | 0.00 | 15 | -103.5 |
| 20260503234316 | 72 | 312 | 0.9 | 3.5 | 0.00 | 0.00 | 0.00 | 18 | -103.5 |
| 20260503233823 | 72 | 356 | 1.7 | 2.6 | 0.00 | 0.00 | 0.00 | 15 | -103.5 |
| 20260503233333 | 72 | 288 | 0.9 | 3.5 | 0.00 | 0.00 | 0.00 | 18 | -103.5 |
| 20260503232813 | 72 | 321 | 1.7 | 4.3 | 0.00 | 0.00 | 0.00 | 15 | -103.5 |
| 20260503232314 | 72 | 309 | 1.7 | 4.3 | 0.00 | 0.00 | 0.00 | 15 | -103.5 |
| 20260503231842 | 72 | 314 | 0.9 | 3.5 | 0.00 | 0.00 | 0.00 | 15 | -103.5 |
| 20260503231324 | 71 | 281 | 0.9 | 3.5 | 0.00 | 0.00 | 0.00 | 15 | -103.5 |
| 20260503230831 | 71 | 333 | 0.9 | 1.7 | 0.00 | 0.00 | 0.00 | 16 | -103.5 |
| 20260503230314 | 71 | 340 | 0.0 | 1.7 | 0.00 | 0.00 | 0.00 | 16 | -103.5 |
| 20260503225821 | 71 | 174 | 0.0 | 1.7 | 0.00 | 0.00 | 0.00 | 16 | -103.5 |
| 20260503225352 | 71 | 335 | 0.9 | 1.7 | 0.00 | 0.00 | 0.00 | 17 | -103.5 |
| 20260503224812 | 71 | 307 | 0.0 | 1.7 | 0.00 | 0.00 | 0.00 | 15 | -103.4 |
| 20260503224314 | 71 | 310 | 0.9 | 2.6 | 0.00 | 0.00 | 0.00 | 16 | -103.4 |
| 20260503223823 | 72 | 304 | 0.9 | 2.6 | 0.00 | 0.00 | 0.00 | 16 | -103.4 |
| 20260503223325 | 73 | 153 | 0.9 | 2.6 | 0.00 | 0.00 | 0.00 | 17 | -103.4 |
| 20260503222827 | 73 | 153 | 0.0 | 2.6 | 0.00 | 0.00 | 0.00 | 19 | -103.4 |
| 20260503222320 | 73 | 161 | 0.0 | 3.5 | 0.00 | 0.00 | 0.00 | 16 | -103.4 |
| 20260503221816 | 73 | 168 | 2.6 | 3.5 | 0.00 | 0.00 | 0.00 | 15 | -103.4 |
| 20260503221319 | 73 | 187 | 1.7 | 3.5 | 0.00 | 0.00 | 0.00 | 15 | -103.4 |
| 20260503220827 | 73 | 130 | 0.0 | 1.7 | 0.00 | 0.00 | 0.00 | 16 | -103.4 |
| 20260503220329 | 73 | 345 | 0.9 | 2.6 | 0.00 | 0.00 | 0.00 | 17 | -103.4 |
| 20260503215837 | 73 | 166 | 0.0 | 2.6 | 0.00 | 0.00 | 0.00 | 17 | -103.4 |
| 20260503215321 | 72 | 146 | 0.9 | 3.5 | 0.00 | 0.00 | 0.00 | 18 | -103.3 |
| 20260503214821 | 72 | 323 | 1.7 | 4.3 | 0.00 | 0.00 | 0.00 | 15 | -103.4 |
| 20260503214351 | 72 | 329 | 1.7 | 4.3 | 0.00 | 0.00 | 0.00 | 16 | -103.3 |
| 20260503213838 | 73 | 296 | 1.7 | 2.6 | 0.00 | 0.00 | 0.00 | 17 | -103.3 |
| 20260503213319 | 74 | 295 | 0.9 | 1.7 | 0.00 | 0.00 | 0.00 | 19 | -103.3 |
| 20260503212821 | 73 | 204 | 0.0 | 3.5 | 0.00 | 0.00 | 0.00 | 21 | -103.3 |
| 20260503212323 | 73 | 319 | 1.7 | 5.2 | 0.00 | 0.00 | 0.00 | 16 | -103.3 |
| 20260503211831 | 73 | 337 | 0.0 | 3.5 | 0.00 | 0.00 | 0.00 | 17 | -103.3 |
| 20260503211335 | 74 | 338 | 0.9 | 3.5 | 0.00 | 0.00 | 0.00 | 16 | -103.3 |
| 20260503210843 | 73 | 355 | 0.0 | 3.5 | 0.00 | 0.00 | 0.00 | 17 | -103.3 |
| 20260503210352 | 73 | 271 | 0.9 | 3.5 | 0.00 | 0.00 | 0.00 | 18 | -103.3 |
| 20260503205812 | 74 | 319 | 0.9 | 2.6 | 0.00 | 0.00 | 0.00 | 18 | -103.3 |
| 20260503205322 | 74 | 133 | 1.7 | 3.5 | 0.00 | 0.00 | 0.00 | 14 | -103.3 |
| 20260503204822 | 75 | 330 | 0.9 | 3.5 | 0.00 | 0.00 | 0.00 | 18 | -103.3 |
| 20260503204326 | 74 | 335 | 0.9 | 3.5 | 0.00 | 0.00 | 0.00 | 21 | -103.3 |
| 20260503203834 | 74 | 157 | 0.9 | 3.5 | 0.00 | 0.00 | 0.00 | 18 | -103.3 |
| 20260503203314 | 74 | 171 | 1.7 | 4.3 | 0.00 | 0.00 | 0.00 | 18 | -103.3 |
| 20260503202821 | 74 | 147 | 1.7 | 4.3 | 0.00 | 0.00 | 0.00 | 18 | -103.3 |
| 20260503202330 | 74 | 98 | 0.9 | 2.6 | 0.00 | 0.00 | 0.00 | 25 | -103.3 |
| 20260503201851 | 73 | 314 | 0.0 | 1.7 | 0.00 | 0.00 | 0.00 | 20 | -103.2 |
| 20260503201341 | 74 | 349 | 0.9 | 3.5 | 0.00 | 0.00 | 0.00 | 22 | -103.2 |
| 20260503200821 | 74 | 50 | 0.9 | 3.5 | 0.00 | 0.00 | 0.00 | 22 | -103.2 |
| 20260503200330 | 74 | 134 | 0.9 | 2.6 | 0.00 | 0.00 | 0.00 | 19 | -103.2 |
| 20260503195812 | 75 | 165 | 0.9 | 2.6 | 0.00 | 0.00 | 0.00 | 19 | -103.2 |
| 20260503195342 | 74 | 153 | 0.9 | 2.6 | 0.00 | 0.00 | 0.00 | 21 | -103.2 |
| 20260503194822 | 73 | 278 | 0.0 | 1.7 | 0.00 | 0.00 | 0.00 | 27 | -103.2 |
| 20260503194332 | 72 | 165 | 0.0 | 3.5 | 0.00 | 0.00 | 0.00 | 21 | -103.2 |
| 20260503193833 | 71 | 6 | 0.9 | 3.5 | 0.00 | 0.00 | 0.00 | 26 | -103.2 |
| 20260503193315 | 71 | 356 | 1.7 | 3.5 | 0.00 | 0.00 | 0.00 | 21 | -103.2 |
| 20260503192822 | 72 | 137 | 1.7 | 3.5 | 0.00 | 0.00 | 0.00 | 23 | -103.2 |
| 20260503192326 | 70 | 299 | 0.9 | 4.3 | 0.00 | 0.00 | 0.00 | 27 | -103.2 |
| 20260503191833 | 70 | 302 | 1.7 | 4.3 | 0.00 | 0.00 | 0.00 | 27 | -103.2 |
| 20260503191316 | 70 | 30 | 1.7 | 4.3 | 0.00 | 0.00 | 0.00 | 27 | -103.2 |
| 20260503190816 | 70 | 344 | 0.9 | 2.6 | 0.00 | 0.00 | 0.00 | 28 | -103.1 |
| 20260503190345 | 69 | 314 | 0.9 | 3.5 | 0.00 | 0.00 | 0.00 | 24 | -103.1 |